This is the latest recevied weather packets stored in our database for station/object N8AMF. If no packets are shown the sender has not sent any weather packets the latest 10 day(s).
| Time | Temp. | Humidity | Pressure | Rain* | Wind** | Luminosity | Snow |
|---|---|---|---|---|---|---|---|
| 1777844221 | 17.22° C | 34% | 1011.1 hPa | 0 mm | - | 470 W/m² | - |
| 1777843917 | 17.78° C | 34% | 1011.1 hPa | 0 mm | - | 515 W/m² | - |
| 1777843614 | 17.22° C | 36% | 1011.1 hPa | 0 mm | - | 530 W/m² | - |
| 1777843312 | 17.22° C | 34% | 1011 hPa | 0 mm | - | 569 W/m² | - |
| 1777843010 | 17.78° C | 36% | 1011 hPa | 0 mm | - | 523 W/m² | - |
| 1777842705 | 16.67° C | 36% | 1011.1 hPa | 0 mm | - | 391 W/m² | - |
| 1777842401 | 17.78° C | 35% | 1011.1 hPa | 0 mm | - | 668 W/m² | - |
| 1777842098 | 17.22° C | 34% | 1011.3 hPa | 0 mm | - | 672 W/m² | - |
| 1777841794 | 16.67° C | 36% | 1011.2 hPa | 0 mm | - | 665 W/m² | - |
| 1777841490 | 17.22° C | 36% | 1011.2 hPa | 0 mm | - | 219 W/m² | - |
| 1777841187 | 16.67° C | 36% | 1011.3 hPa | 0 mm | - | 412 W/m² | - |
| 1777840885 | 16.67° C | 37% | 1011.3 hPa | 0 mm | - | 792 W/m² | - |
| 1777840581 | 16.67° C | 38% | 1011.3 hPa | 0 mm | - | 303 W/m² | - |
| 1777840279 | 16.11° C | 39% | 1011.2 hPa | 0 mm | - | 831 W/m² | - |
| 1777839976 | 16.11° C | 38% | 1011.3 hPa | 0 mm | - | 270 W/m² | - |
| 1777839674 | 16.67° C | 38% | 1011.2 hPa | 0 mm | - | 358 W/m² | - |
| 1777839372 | 16.67° C | 37% | 1011.5 hPa | 0 mm | - | 948 W/m² | - |
| 1777839069 | 16.11° C | 38% | 1011.5 hPa | 0 mm | - | 801 W/m² | - |
| 1777838765 | 16.11° C | 38% | 1011.7 hPa | 0 mm | - | 940 W/m² | - |
| 1777838462 | 17.22° C | 36% | 1011.8 hPa | 0 mm | - | 927 W/m² | - |
| 1777838159 | 17.78° C | 37% | 1011.5 hPa | 0 mm | - | 241 W/m² | - |
| 1777837856 | 17.22° C | 34% | 1011.6 hPa | 0 mm | - | 942 W/m² | - |
| 1777837553 | 16.67° C | 38% | 1011.7 hPa | 0 mm | - | 819 W/m² | - |
| 1777837253 | 17.22° C | 37% | 1012 hPa | 0 mm | - | 459 W/m² | - |
| 1777836950 | 17.22° C | 40% | 1012.1 hPa | 0 mm | - | 259 W/m² | - |
* Rain latest hour (hover to see other rain measurements)
** Current wind speed in m/s (hover to see current wind gust speed)